TimeCST,TemperatureF,Dew PointF,Humidity,Sea Level PressureIn,VisibilityMPH,Wind Direction,Wind SpeedMPH,Gust SpeedMPH,PrecipitationIn,Events,Conditions,WindDirDegrees,DateUTC
12:15 AM,53.1,46.4,78,29.72,10.0,South,12.7,-,N/A,,Clear,190,2013-01-12 06:15:00
12:35 AM,53.6,46.4,77,29.72,10.0,South,16.1,19.6,N/A,,Clear,190,2013-01-12 06:35:00
12:55 AM,53.1,46.4,78,29.73,10.0,South,13.8,-,N/A,,Clear,180,2013-01-12 06:55:00
1:15 AM,51.8,46.4,82,29.73,10.0,South,11.5,-,N/A,,Clear,180,2013-01-12 07:15:00
1:35 AM,52.2,46.2,80,29.73,10.0,South,11.5,-,N/A,,Clear,190,2013-01-12 07:35:00
1:55 AM,52.9,46.2,78,29.75,10.0,SSW,15.0,-,N/A,,Clear,200,2013-01-12 07:55:00
2:15 AM,54.1,45.9,74,29.76,10.0,SSW,15.0,-,N/A,,Clear,200,2013-01-12 08:15:00
2:35 AM,54.5,45.9,73,29.76,10.0,SSW,13.8,20.7,N/A,,Clear,200,2013-01-12 08:35:00
2:55 AM,54.5,45.7,72,29.77,10.0,SSW,16.1,20.7,N/A,,Clear,210,2013-01-12 08:55:00
3:15 AM,53.8,45.7,74,29.77,10.0,SSW,15.0,20.7,N/A,,Clear,210,2013-01-12 09:15:00
3:35 AM,54.1,45.7,73,29.77,10.0,SW,18.4,23.0,N/A,,Clear,220,2013-01-12 09:35:00
3:55 AM,54.5,45.7,72,29.77,10.0,SW,17.3,23.0,N/A,,Clear,220,2013-01-12 09:55:00
4:15 AM,54.0,45.7,74,29.78,10.0,SW,17.3,-,N/A,,Clear,220,2013-01-12 10:15:00
4:35 AM,53.1,45.7,76,29.79,10.0,SW,16.1,-,N/A,,Clear,220,2013-01-12 10:35:00
4:55 AM,52.7,45.7,77,29.80,10.0,SW,16.1,-,N/A,,Clear,230,2013-01-12 10:55:00
5:15 AM,52.7,45.1,75,29.80,10.0,WSW,16.1,20.7,N/A,,Clear,240,2013-01-12 11:15:00
5:35 AM,51.3,44.8,78,29.82,10.0,West,12.7,-,N/A,,Clear,260,2013-01-12 11:35:00
5:55 AM,51.1,41.2,69,29.84,10.0,West,15.0,21.9,N/A,,Clear,260,2013-01-12 11:55:00
6:15 AM,48.7,38.7,68,29.86,10.0,WNW,21.9,25.3,N/A,,Clear,300,2013-01-12 12:15:00
6:35 AM,43.5,37.6,80,29.89,7.0,WNW,13.8,-,N/A,,Scattered Clouds,300,2013-01-12 12:35:00
6:55 AM,41.4,36.5,83,29.92,7.0,WNW,12.7,-,N/A,,Scattered Clouds,300,2013-01-12 12:55:00
7:15 AM,40.3,36.3,86,29.94,7.0,WNW,12.7,-,N/A,,Clear,300,2013-01-12 13:15:00
7:35 AM,39.2,35.4,86,29.95,7.0,WNW,12.7,-,N/A,,Clear,290,2013-01-12 13:35:00
7:55 AM,38.7,34.9,86,29.95,7.0,WNW,12.7,-,N/A,,Clear,290,2013-01-12 13:55:00
8:15 AM,38.3,33.8,84,29.95,10.0,WNW,15.0,-,N/A,,Clear,300,2013-01-12 14:15:00
8:35 AM,38.1,34.2,86,29.98,10.0,WNW,9.2,-,N/A,,Clear,300,2013-01-12 14:35:00
8:55 AM,37.6,33.1,84,29.98,10.0,WNW,15.0,-,N/A,,Mostly Cloudy,300,2013-01-12 14:55:00
9:15 AM,37.8,33.3,84,30.00,10.0,WNW,15.0,-,N/A,,Mostly Cloudy,290,2013-01-12 15:15:00
9:35 AM,37.8,32.9,83,30.01,10.0,WNW,16.1,-,N/A,,Scattered Clouds,290,2013-01-12 15:35:00
9:55 AM,37.8,32.7,82,30.03,10.0,WNW,10.4,-,N/A,,Mostly Cloudy,290,2013-01-12 15:55:00
10:15 AM,37.4,32.7,83,30.03,10.0,WNW,10.4,-,N/A,,Overcast,300,2013-01-12 16:15:00
10:35 AM,37.0,32.2,83,30.03,10.0,WNW,10.4,-,N/A,,Overcast,290,2013-01-12 16:35:00
10:55 AM,36.5,32.0,84,30.04,10.0,NW,6.9,-,N/A,,Overcast,320,2013-01-12 16:55:00
11:15 AM,36.5,31.8,83,30.03,10.0,WNW,12.7,-,N/A,,Overcast,300,2013-01-12 17:15:00
11:35 AM,36.5,31.8,83,30.02,10.0,NW,15.0,-,N/A,,Scattered Clouds,310,2013-01-12 17:35:00
11:55 AM,36.3,28.9,75,30.00,10.0,NW,11.5,-,N/A,,Scattered Clouds,310,2013-01-12 17:55:00
12:15 PM,35.2,26.8,71,29.99,10.0,NW,13.8,-,N/A,,Clear,320,2013-01-12 18:15:00
12:35 PM,34.0,25.9,72,30.00,10.0,NW,16.1,-,N/A,,Scattered Clouds,320,2013-01-12 18:35:00
12:55 PM,33.4,24.6,70,30.00,10.0,NW,12.7,-,N/A,,Mostly Cloudy,320,2013-01-12 18:55:00
1:15 PM,33.4,25.0,71,30.00,10.0,NW,9.2,-,N/A,,Overcast,320,2013-01-12 19:15:00
1:35 PM,33.6,25.5,72,29.99,10.0,NW,11.5,-,N/A,,Overcast,320,2013-01-12 19:35:00
1:55 PM,33.4,25.2,72,30.00,10.0,NW,8.1,-,N/A,,Overcast,320,2013-01-12 19:55:00
2:15 PM,33.1,25.3,73,30.02,10.0,NW,10.4,-,N/A,,Overcast,310,2013-01-12 20:15:00
2:35 PM,32.9,24.1,70,30.04,10.0,NW,10.4,-,N/A,,Overcast,320,2013-01-12 20:35:00
2:55 PM,33.1,25.0,72,30.04,10.0,NNW,9.2,-,N/A,,Overcast,330,2013-01-12 20:55:00
3:15 PM,32.9,25.2,73,30.03,10.0,NNW,10.4,-,N/A,,Overcast,340,2013-01-12 21:15:00
3:35 PM,32.4,25.2,75,30.03,10.0,NNW,12.7,-,N/A,,Overcast,330,2013-01-12 21:35:00
3:55 PM,32.0,24.8,75,30.03,10.0,NNW,10.4,-,N/A,,Overcast,330,2013-01-12 21:55:00
4:15 PM,32.0,25.7,78,30.01,10.0,North,11.5,-,N/A,,Overcast,350,2013-01-12 22:15:00
4:35 PM,31.6,26.1,80,30.00,10.0,North,11.5,-,N/A,,Overcast,350,2013-01-12 22:35:00
4:55 PM,31.3,25.3,79,30.00,10.0,North,8.1,-,N/A,,Overcast,350,2013-01-12 22:55:00
5:15 PM,31.1,25.0,78,29.98,10.0,North,10.4,-,N/A,,Overcast,350,2013-01-12 23:15:00
5:35 PM,30.9,24.1,76,29.99,10.0,North,11.5,-,N/A,,Overcast,350,2013-01-12 23:35:00
5:55 PM,30.7,24.1,76,29.98,10.0,North,10.4,-,N/A,,Overcast,350,2013-01-12 23:55:00
6:15 PM,30.4,24.6,79,29.99,10.0,NNW,15.0,-,N/A,,Overcast,340,2013-01-13 00:15:00
6:35 PM,30.0,24.6,80,30.02,10.0,NW,13.8,-,N/A,,Overcast,320,2013-01-13 00:35:00
6:55 PM,29.8,24.3,80,30.02,10.0,NNW,16.1,20.7,N/A,,Overcast,330,2013-01-13 00:55:00
7:15 PM,29.5,24.1,80,30.02,10.0,NNW,20.7,26.5,N/A,,Overcast,330,2013-01-13 01:15:00
7:35 PM,27.9,25.3,90,30.01,3.0,NNW,16.1,-,N/A,Snow,Light Snow,330,2013-01-13 01:35:00
7:55 PM,27.0,24.8,92,30.00,1.2,NNW,17.3,25.3,N/A,Snow,Light Snow,340,2013-01-13 01:55:00
8:15 PM,26.2,24.4,93,29.99,0.8,NNW,16.1,24.2,N/A,Snow,Snow,340,2013-01-13 02:15:00
8:35 PM,25.9,24.3,94,29.97,2.0,North,15.0,18.4,N/A,Snow,Light Snow,360,2013-01-13 02:35:00
8:55 PM,26.2,24.4,93,29.96,7.0,North,12.7,23.0,N/A,Snow,Light Snow,360,2013-01-13 02:55:00
9:15 PM,26.1,23.9,92,29.97,7.0,NNW,13.8,-,N/A,,Overcast,340,2013-01-13 03:15:00
9:35 PM,26.6,24.8,93,29.98,4.0,North,15.0,-,N/A,Snow,Light Snow,350,2013-01-13 03:35:00
9:55 PM,25.7,24.4,95,29.99,2.0,NNW,11.5,-,0.02,Snow,Light Snow,340,2013-01-13 03:55:00
10:15 PM,25.5,24.4,96,30.00,2.0,NNW,15.0,20.7,N/A,Snow,Light Snow,330,2013-01-13 04:15:00
10:35 PM,24.8,23.5,95,29.99,1.0,NNW,15.0,21.9,N/A,Snow,Light Snow,340,2013-01-13 04:35:00
10:55 PM,24.8,23.0,93,30.00,1.0,NNW,20.7,24.2,N/A,Snow,Light Snow,330,2013-01-13 04:55:00
11:15 PM,24.1,22.8,95,29.99,1.2,NNW,16.1,23.0,N/A,Snow,Light Snow,340,2013-01-13 05:15:00
11:35 PM,23.4,21.2,91,29.99,1.8,NNW,19.6,28.8,N/A,Snow,Light Snow,340,2013-01-13 05:35:00
11:55 PM,23.0,20.7,91,29.98,2.5,NNW,16.1,26.5,N/A,Snow,Light Snow,340,2013-01-13 05:55:00